Tracking 17138 objects as of 8-July-2015
HD Live streaming from Space Station

SL-14 R/B

Track SL-14 R/B now!
10-day predictions
SL-14 R/B is classified as:


NORAD ID: 15370
Int'l Code: 1984-111B
Perigee: 611.9 km
Apogee: 639.5 km
Inclination: 82.5 °
Period: 97.1 minutes
Semi major axis: 6996 km
RCS: 4.088 m2 (large)
Launch date: October 18, 1984
Source: Commonwealth of Independent States (former USSR) (CIS)

Note: This is a ROCKET BODY
Your satellite tracking list
Your tracking list is empty





NASA's NSSDC Master Catalog

Two Line Element Set (TLE):
1 15370U 84111B   15187.94854412  .00000290  00000-0  32382-4 0  9993
2 15370 082.5178 314.1475 0019698 237.2049 122.7269 14.83420297658721

Source of the keplerian elements: AFSPC

N2YO: 390